EW2961 Weather Reports


Display with metric or nautical units.
time (UTC)temp
F
wind
direction
speed
MPH
gust
MPH
rain 1hr
in
rain 24hr
in
rain mn
in
humidity
%
barometer
mb
20260510174503 63 6 3.0 11.0 0.00 0.00 0.00 78 1018.3
20260510173218 63 11 2.0 12.0 0.00 0.00 0.00 76 1019.0
20260510171504 64 8 1.0 10.0 0.00 0.00 0.00 75 1018.9
20260510170003 65 19 2.0 9.0 0.00 0.00 0.00 77 1018.6
20260510164503 65 13 3.0 11.0 0.00 0.00 0.00 79 1018.1
20260510163003 65 17 1.0 8.0 0.00 0.00 0.00 82 1017.8
20260510161503 64 21 0.0 7.0 0.00 0.00 0.00 83 1017.3
20260510160003 64 27 1.0 6.0 0.00 0.00 0.00 83 1016.9
20260510154504 64 9 3.0 9.0 0.00 0.00 0.00 83 1016.5
20260510153003 64 13 1.0 10.0 0.00 0.00 0.00 82 1016.4
20260510151504 64 19 1.0 7.0 0.00 0.00 0.00 83 1016.0
20260510150003 64 22 1.0 7.0 0.00 0.00 0.00 84 1015.7
20260510144503 64 27 1.0 9.0 0.00 0.00 0.00 86 1015.6
20260510143004 64 32 0.0 3.0 0.00 0.00 0.00 88 1015.2
20260510141503 64 0 0.0 0.0 0.00 0.00 0.00 90 1015.7
20260510140004 64 32 0.0 3.0 0.00 0.00 0.00 90 1015.6
20260510134503 63 0 0.0 0.0 0.00 0.00 0.00 89 1015.7
20260510133003 63 0 0.0 0.0 0.00 0.00 0.00 88 1015.8
20260510131503 63 0 0.0 0.0 0.00 0.00 0.00 88 1015.8
20260510130003 63 0 0.0 0.0 0.00 0.00 0.00 88 1016.0
20260510124503 63 0 0.0 0.0 0.00 0.00 0.00 87 1015.1
20260510123003 63 0 0.0 0.0 0.00 0.00 0.00 88 1014.8
20260510121504 63 0 0.0 0.0 0.00 0.00 0.00 89 1014.1
20260510120003 62 0 0.0 0.0 0.00 0.00 0.00 88 1013.7
20260510114503 62 0 0.0 0.0 0.00 0.00 0.00 88 1013.5
20260510113003 62 0 0.0 0.0 0.00 0.00 0.00 85 1012.9
20260510111504 62 0 0.0 0.0 0.00 0.00 0.00 85 1012.7
20260510110004 63 0 0.0 0.0 0.00 0.00 0.00 84 1012.5
20260510104503 63 0 0.0 0.0 0.00 0.00 0.00 82 1012.3
20260510103004 64 0 0.0 0.0 0.00 0.00 0.00 82 1012.3
20260510101503 64 0 0.0 0.0 0.00 0.00 0.00 82 1012.0
20260510100004 64 32 0.0 2.0 0.00 0.00 0.00 81 1011.9
20260510094503 64 0 0.0 0.0 0.00 0.00 0.00 79 1011.9
20260510093003 65 0 0.0 0.0 0.00 0.00 0.00 77 1012.0
20260510091503 66 0 0.0 0.0 0.00 0.00 0.00 75 1011.9
20260510090003 66 0 0.0 0.0 0.00 0.00 0.00 74 1011.3
20260510084503 66 32 1.0 6.0 0.00 0.00 0.00 74 1010.8
20260510083003 67 33 0.0 1.0 0.00 0.00 0.00 73 1010.6
20260510081503 67 29 1.0 8.0 0.00 0.00 0.00 72 1010.0
20260510080219 67 123 0.0 2.0 0.00 0.00 0.00 72 1010.0
20260510074503 67 164 2.0 12.0 0.00 0.00 0.00 72 1008.1
20260510073003 68 164 3.0 9.0 0.00 0.00 0.00 72 1008.6
20260510071717 68 166 1.0 5.0 0.00 0.00 0.00 70 1010.9
20260510070003 68 167 3.0 11.0 0.00 0.00 0.00 67 1010.3
20260510064503 69 228 3.0 15.0 0.00 0.00 0.00 68 1012.1
20260510063003 69 0 0.0 0.0 0.00 0.00 0.00 70 1012.3
20260510061504 69 6 0.0 9.0 0.00 0.00 0.00 68 1012.0
20260510060218 69 0 0.0 0.0 0.00 0.00 0.00 71 1012.0
20260510054503 69 0 0.0 0.0 0.00 0.00 0.00 69 1012.7
20260510053003 69 0 0.0 0.0 0.00 0.00 0.00 68 1012.8
20260510051503 69 178 0.0 5.0 0.00 0.00 0.00 68 1012.7
20260510050003 68 0 0.0 0.0 0.00 0.00 0.00 71 1012.3
20260510044504 68 0 0.0 0.0 0.00 0.00 0.00 71 1011.6
20260510043004 68 0 0.0 0.0 0.00 0.00 0.00 69 1011.2
20260510041503 68 0 0.0 0.0 0.00 0.00 0.00 68 1010.9
20260510040217 68 0 0.0 0.0 0.00 0.00 0.00 67 1010.8
20260510034503 69 0 0.0 0.0 0.00 0.01 0.00 65 1010.5
20260510033004 69 0 0.0 0.0 0.00 0.01 0.00 64 1010.7
20260510031503 69 0 0.0 0.0 0.00 0.01 0.00 62 1010.7
20260510030217 70 0 0.0 0.0 0.00 0.01 0.00 60 1010.7
20260510024504 70 0 0.0 0.0 0.00 0.01 0.00 57 1010.4
20260510023217 71 0 0.0 0.0 0.00 0.01 0.00 56 1009.8
20260510021503 72 0 0.0 0.0 0.00 0.01 0.00 53 1009.1
20260510020004 73 0 0.0 0.0 0.00 0.01 0.00 52 1008.7
20260510014503 74 0 0.0 0.0 0.00 0.01 0.00 49 1008.4
20260510013003 76 0 0.0 0.0 0.00 0.01 0.00 46 1008.2
20260510011503 77 0 0.0 0.0 0.00 0.01 0.00 44 1008.1
20260510010004 78 0 0.0 0.0 0.00 0.01 0.00 43 1008.0
20260510004503 79 178 0.0 3.0 0.00 0.01 0.00 43 1007.9
20260510003004 80 178 1.0 3.0 0.00 0.02 0.00 44 1007.7
20260510001503 82 178 1.0 5.0 0.00 0.02 0.00 42 1007.7
20260510000004 84 128 1.0 6.0 0.00 0.20 0.00 40 1007.7
20260509234503 86 184 1.0 5.0 0.00 0.51 0.00 37 1007.8
20260509233003 86 185 1.0 6.0 0.00 0.65 0.00 35 1007.9
20260509231503 87 188 1.0 7.0 0.00 0.65 0.00 32 1008.0
20260509230003 88 143 2.0 6.0 0.00 0.65 0.00 31 1008.2
20260509224504 87 82 2.0 7.0 0.00 0.65 0.00 31 1008.2
20260509223003 88 121 2.0 6.0 0.00 0.65 0.00 34 1008.2
20260509221504 88 101 1.0 7.0 0.00 0.65 0.00 36 1008.3
20260509220217 88 122 1.0 4.0 0.00 0.65 0.00 33 1008.4
20260509214503 88 98 2.0 4.0 0.00 0.65 0.00 36 1008.4
20260509213003 89 113 2.0 6.0 0.00 0.65 0.00 38 1008.4
20260509211718 89 114 1.0 4.0 0.00 0.65 0.00 41 1008.6
20260509210004 88 143 1.0 4.0 0.00 0.65 0.00 37 1008.9
20260509204503 87 109 2.0 6.0 0.00 0.65 0.00 33 1009.1
20260509203004 89 122 2.0 5.0 0.00 0.65 0.00 38 1009.2
20260509201717 88 141 1.0 6.0 0.00 0.65 0.00 36 1009.3
20260509200003 88 154 1.0 6.0 0.00 0.65 0.00 37 1009.4
20260509194717 87 116 1.0 4.0 0.00 0.65 0.00 32 1009.6
20260509193003 86 84 0.0 3.0 0.00 0.65 0.00 38 1009.8
20260509191717 85 87 1.0 6.0 0.00 0.65 0.00 36 1009.9
20260509190218 85 159 1.0 5.0 0.00 0.65 0.00 44 1009.8
20260509184719 85 150 1.0 6.0 0.00 0.65 0.00 48 1009.8
20260509183003 83 182 1.0 5.0 0.00 0.65 0.00 48 1010.0
20260509181503 82 167 1.0 4.0 0.00 0.65 0.00 54 1010.2
20260509180004 82 167 1.0 6.0 0.00 0.65 0.00 56 1010.4